DECAYED

STARLINK-3530, 51730 (Decayed)

Orbit data source: Space-Track

STARLINK-3530, 51730 was a payload satellite owned by SpaceX/Seattle (US) in LEO that was launched on Mon, 21 Feb 2022 UTC via an FALCON 9 launch vehicle from the Air Force Eastern Test Range (AFETR). Payload-class satellites include a variety of spacecraft equipped with specific instruments for various scientific and technological missions. These include communications satellites like Starlink; space stations such as the ISS; scientific satellites like the Hubble; Earth observation satellites from companies like Planet Labs, Umbra, and HawkEye 360; GPS; miniature CubeSats for education and research; and military/defense satellites.

Not visible in the next 10 days
Identifier
51730, 2022-016S
Orbit
Decayed
Country
Flag of USUS
Related business
Manufacturer
SpaceX/Seattle
Mission
Decayed Commercial Communications
Bus & Motor
STARLINK, Unknown motor
Mass
297 kg wet, ~275 kg dry
Launch date (UTC)
2022-02-21 (4 years ago)
Launch vehicle
FALCON 9
Launch site
Air Force Eastern Test Range (AFETR)
Object type
Payload
Rocket body
Debris
Shape & HBR
Box + 1 Pan, 10.1 m
Radar Cross Section
13.562 m², Large (>1 m²)

Expand to show TLE details & history
Last TLE update: 1 year ago

TLE from 1 year ago
0 STARLINK-3530
1 51730U 22016S   24362.77317108  .15332041  12593-4  31033-3 0  9994
2 51730  53.2029  98.2209 0003014   5.6877 136.3221 16.47000520158973
Epoch: 2024-12-27T18:33Z
TLE epoch observation values (Epoch: 2024-12-27T18:33:21.981Z)
Latitude
29.60881°
Longitude
-121.85497°
Altitude
150.315 km
Speed
7.819 km/s
True Right ascension
16h 52m 52s
True Declination
29° 26' 51"
Sunlit
Object was in daylight at epoch
Visualization orbit readout
Latitude
Unknown
Longitude
Unknown
Altitude
Unknown
Speed
Unknown
Apparent Right ascension
Unknown
Apparent Declination
Unknown
Sunlit
N/A
Visualization observer readout
Local Sidereal Time
21:33:17
Azimuth
Unknown
Elevation
Unknown
Doppler factor
Unknown
Orbital elements
Apogee altitude
149.475 km
Perigee altitude
145.541 km
Semi-major axis
6,525.645 km
Eccentricity
0.0003
Inclination
53.2029°
RAAN
98.2209°
Arg. of periapsis
5.6877°
True anomaly
136.34595°
Mean anomaly
136.3221°
Eccentric anomaly
136.33402°
Mean motion
4.11726 °/min
Orbital period
87.44 mins
BSTAR
0.00031033
Loading maneuver chart data...
Computing Atmospheric mass density...
Loading historical data...
Loading historical data...
Loading historical data...
Loading historical data...
Loading historical data...
Loading historical data...
Loading historical data...

Documentation

Showing up to 5 results
|